Location: Deuil
(48.9767°N, 2.3272°E)
Time: 00:54:42
(UTC+00:00)

Cosmos 2360 Rocket - Visible Passes

Search period start: 22 May 2022 00:00
Search period end: 01 June 2022 00:00
Orbit: 833 x 845 km, 71.0° (Epoch: 21 May)

Date Brightness Start Highest point End Pass type
(mag) Time Alt. Az. Time Alt. Az. Time Alt. Az.
22 May 2.9 00:42:06 22° WSW 00:45:26 46° NW 00:50:54 10° NNE visible
22 May 4.6 02:28:14 10° WNW 02:30:59 14° NNW 02:33:44 10° N visible
22 May 3.0 22:44:33 29° SE 22:45:51 32° ESE 22:50:47 10° NE visible
23 May 2.9 00:26:17 22° WSW 00:29:39 49° NW 00:35:08 10° NNE visible
23 May 4.6 02:12:13 10° WNW 02:15:07 14° NNW 02:18:02 10° N visible
23 May 3.1 22:28:41 27° SE 22:30:05 30° ESE 22:34:57 10° NE visible
24 May 2.8 00:10:24 22° WSW 00:13:50 51° NW 00:19:22 10° NNE visible
24 May 4.6 01:56:12 10° WNW 01:59:15 15° NNW 02:02:19 10° N visible
24 May 3.2 22:12:46 25° SE 22:14:20 28° ESE 22:19:06 10° NE visible
24 May 2.7 23:54:29 22° SW 23:58:02 54° NW 00:03:36 10° NNE visible
25 May 4.6 01:40:12 10° WNW 01:43:23 15° NNW 01:46:36 10° N visible
25 May 3.3 21:56:46 22° SE 21:58:36 27° ESE 22:03:15 10° NE visible
25 May 2.7 23:38:29 21° SW 23:42:14 57° WNW 23:47:50 10° NNE visible
26 May 4.6 01:24:12 10° WNW 01:27:32 16° NNW 01:30:52 10° N visible
26 May 3.3 21:40:43 20° SE 21:42:51 25° ESE 21:47:23 10° NE visible
26 May 2.6 23:22:25 19° SW 23:26:25 60° WNW 23:32:03 10° NNE visible
27 May 4.6 01:08:13 10° WNW 01:11:40 16° NW 01:15:09 10° N visible
27 May 3.4 21:24:33 17° SE 21:27:06 24° ESE 21:31:30 10° NE visible
27 May 2.5 23:06:15 17° SW 23:10:38 64° WNW 23:16:17 10° NNE visible
28 May 4.6 00:52:14 10° WNW 00:55:49 17° NW 00:59:25 10° N visible
28 May 3.4 21:08:16 15° SE 21:11:21 22° ESE 21:15:38 10° NE visible
28 May 2.5 22:49:58 14° SW 22:54:49 67° WNW 23:00:30 10° NNE visible
29 May 4.6 00:36:15 10° WNW 00:39:58 17° NW 00:43:41 10° N visible
29 May 3.5 20:51:51 11° SE 20:55:37 21° E 20:59:45 10° NE visible
29 May 2.4 22:33:32 11° SW 22:39:02 71° WNW 22:44:43 10° NNE visible
30 May 4.6 00:20:17 10° W 00:24:06 18° NW 00:27:57 10° N visible
30 May 3.5 20:35:55 10° SE 20:39:53 20° E 20:43:51 10° NE visible
30 May 2.4 22:17:36 10° SW 22:23:14 75° WNW 22:28:56 10° NNE visible
31 May 4.6 00:04:19 10° W 00:08:15 19° NW 00:12:12 10° N visible
31 May 3.6 20:20:21 10° SE 20:24:08 19° E 20:27:56 10° ENE visible
31 May 2.3 22:01:48 10° SSW 22:07:27 79° WNW 22:13:09 10° NNE visible
31 May 4.6 23:48:22 10° W 23:52:24 20° NW 23:56:28 10° N visible
